TimePST,TemperatureF,Dew PointF,Humidity,Sea Level PressureIn,VisibilityMPH,Wind Direction,Wind SpeedMPH,Gust SpeedMPH,PrecipitationIn,Events,Conditions,WindDirDegrees,DateUTC
12:53 AM,63.0,60.1,90,30.06,6.0,ESE,5.8,-,0.00,,Overcast,110,2012-11-17 08:53:00
1:53 AM,62.1,59.0,90,30.05,6.0,East,5.8,-,0.00,,Overcast,100,2012-11-17 09:53:00
1:59 AM,62.6,59.0,88,30.06,5.0,East,4.6,-,N/A,,Overcast,100,2012-11-17 09:59:00
2:43 AM,60.8,59.0,94,30.05,6.0,ESE,5.8,-,0.00,,Overcast,110,2012-11-17 10:43:00
2:53 AM,61.5,59.0,91,30.04,7.0,East,6.9,-,0.00,,Overcast,100,2012-11-17 10:53:00
2:55 AM,60.8,59.0,94,30.05,7.0,East,8.1,-,N/A,,Overcast,100,2012-11-17 10:55:00
3:08 AM,60.8,59.0,94,30.04,4.0,East,6.9,-,0.00,Rain,Light Rain,100,2012-11-17 11:08:00
3:29 AM,60.8,59.0,94,30.04,7.0,East,6.9,-,0.01,Rain,Light Rain,100,2012-11-17 11:29:00
3:53 AM,60.6,59.0,94,30.04,8.0,ESE,8.1,-,0.01,,Overcast,110,2012-11-17 11:53:00
4:53 AM,60.3,59.0,96,30.05,8.0,ESE,6.9,-,N/A,,Overcast,110,2012-11-17 12:53:00
5:41 AM,60.8,59.0,94,30.06,10.0,East,6.9,-,N/A,,Mostly Cloudy,100,2012-11-17 13:41:00
5:53 AM,60.4,59.0,95,30.06,10.0,ESE,8.1,-,N/A,,Mostly Cloudy,110,2012-11-17 13:53:00
6:28 AM,60.8,57.2,88,30.07,10.0,East,9.2,-,N/A,,Mostly Cloudy,100,2012-11-17 14:28:00
6:50 AM,60.8,57.2,88,30.08,2.5,East,6.9,-,0.04,Rain,Heavy Rain,100,2012-11-17 14:50:00
6:53 AM,61.0,57.9,90,30.07,2.5,ESE,6.9,-,0.04,Rain,Rain,110,2012-11-17 14:53:00
6:58 AM,60.8,59.0,94,30.08,2.5,ESE,6.9,-,0.01,Rain,Light Rain,110,2012-11-17 14:58:00
7:11 AM,60.8,59.0,94,30.08,4.0,ESE,9.2,-,0.02,Rain,Light Rain,110,2012-11-17 15:11:00
7:40 AM,60.8,59.0,94,30.09,6.0,ESE,8.1,-,0.02,,Overcast,110,2012-11-17 15:40:00
7:53 AM,61.0,59.0,93,30.09,7.0,ESE,9.2,-,0.02,,Overcast,110,2012-11-17 15:53:00
8:23 AM,60.8,59.0,94,30.10,7.0,ESE,9.2,-,N/A,,Overcast,110,2012-11-17 16:23:00
8:45 AM,62.6,59.0,88,30.10,8.0,East,10.4,-,N/A,,Overcast,100,2012-11-17 16:45:00
8:53 AM,62.1,59.0,90,30.10,7.0,East,11.5,-,0.00,Rain,Light Rain,100,2012-11-17 16:53:00
9:26 AM,62.6,59.0,88,30.11,10.0,ESE,8.1,-,0.00,,Mostly Cloudy,120,2012-11-17 17:26:00
9:53 AM,64.0,59.0,84,30.10,10.0,ESE,11.5,-,0.00,,Overcast,110,2012-11-17 17:53:00
10:15 AM,64.4,59.0,83,30.10,10.0,ESE,11.5,-,N/A,,Overcast,110,2012-11-17 18:15:00
10:39 AM,64.4,59.0,83,30.10,10.0,ESE,10.4,-,N/A,,Mostly Cloudy,120,2012-11-17 18:39:00
10:53 AM,64.9,59.0,81,30.09,10.0,SE,9.2,-,N/A,,Overcast,130,2012-11-17 18:53:00
11:53 AM,66.9,57.9,73,30.07,10.0,SE,10.4,-,N/A,,Overcast,140,2012-11-17 19:53:00
12:16 PM,68.0,57.2,68,30.06,10.0,SSE,8.1,-,N/A,,Overcast,150,2012-11-17 20:16:00
12:53 PM,68.0,57.9,70,30.05,10.0,SSE,11.5,-,N/A,,Overcast,150,2012-11-17 20:53:00
1:53 PM,68.0,57.9,70,30.04,10.0,South,11.5,21.9,N/A,,Overcast,170,2012-11-17 21:53:00
2:53 PM,66.0,60.1,81,30.04,9.0,South,9.2,18.4,0.00,Rain,Light Rain,170,2012-11-17 22:53:00
3:39 PM,64.4,60.8,88,30.05,9.0,SSE,6.9,-,0.00,Rain,Light Rain,160,2012-11-17 23:39:00
3:53 PM,64.9,61.0,87,30.04,7.0,SSE,4.6,-,0.01,Rain,Light Rain,150,2012-11-17 23:53:00
4:53 PM,63.0,60.1,90,30.05,2.5,SSW,8.1,-,0.05,Rain,Light Rain,210,2012-11-18 00:53:00
5:08 PM,62.6,60.8,94,30.05,3.0,SSW,5.8,-,0.01,Rain,Light Rain,210,2012-11-18 01:08:00
5:29 PM,62.6,60.8,94,30.06,7.0,Calm,Calm,-,0.02,,Overcast,0,2012-11-18 01:29:00
5:46 PM,62.6,60.8,94,30.06,7.0,West,4.6,-,0.02,,Overcast,270,2012-11-18 01:46:00
5:53 PM,62.1,60.1,93,30.06,7.0,West,4.6,-,0.02,,Overcast,270,2012-11-18 01:53:00
6:19 PM,62.6,60.8,94,30.06,5.0,Calm,Calm,-,0.00,Rain,Light Rain,0,2012-11-18 02:19:00
6:53 PM,60.4,60.1,99,30.06,4.0,East,4.6,-,0.01,Rain,Light Rain,90,2012-11-18 02:53:00
7:05 PM,-9999,-9999,N/A,30.06,3.0,East,4.6,-,0.01,Rain,Light Rain,100,2012-11-18 03:05:00
7:38 PM,60.8,60.8,100,30.07,2.0,East,5.8,-,0.05,Rain,Light Rain,80,2012-11-18 03:38:00
7:53 PM,60.6,60.1,98,30.07,3.0,East,4.6,-,0.06,Rain,Light Rain,80,2012-11-18 03:53:00
8:23 PM,60.8,60.8,100,30.07,2.5,ENE,5.8,-,0.01,Rain,Light Rain,60,2012-11-18 04:23:00
8:53 PM,61.0,60.1,97,30.08,5.0,East,5.8,-,0.02,,Overcast,80,2012-11-18 04:53:00
9:53 PM,59.9,58.8,96,30.09,6.0,Variable,4.6,-,0.00,Rain,Light Rain,0,2012-11-18 05:53:00
10:12 PM,59.0,59.0,100,30.09,4.0,South,5.8,-,0.03,Rain,Light Rain,190,2012-11-18 06:12:00
10:53 PM,59.7,57.0,91,30.10,6.0,WSW,8.1,-,0.03,,Overcast,240,2012-11-18 06:53:00
11:48 PM,59.0,57.2,94,30.11,6.0,SW,5.8,-,N/A,,Overcast,230,2012-11-18 07:48:00
11:53 PM,60.1,57.0,90,30.11,6.0,SW,5.8,-,N/A,,Overcast,230,2012-11-18 07:53:00